| time (UTC) | temp F | wind direction | speed knots | gust knots | rain 1hr in | rain 24hr in | rain mn in | humidity % | barometer mb |
| 20260503222502 | 76 | 348 | 0.9 | 3.5 | 0.00 | 0.00 | 0.00 | 32 | 1008.9 |
| 20260503222006 | 76 | 348 | 0.0 | 4.3 | 0.00 | 0.00 | 0.00 | 31 | 1009.0 |
| 20260503221514 | 76 | 328 | 1.7 | 4.3 | 0.00 | 0.00 | 0.00 | 33 | 1009.0 |
| 20260503221006 | 76 | 347 | 0.0 | 3.5 | 0.00 | 0.00 | 0.00 | 32 | 1009.0 |
| 20260503220504 | 75 | 343 | 1.7 | 3.5 | 0.00 | 0.00 | 0.00 | 33 | 1008.9 |
| 20260503220021 | 75 | 320 | 1.7 | 2.6 | 0.00 | 0.00 | 0.00 | 33 | 1009.0 |
| 20260503215506 | 75 | 23 | 0.0 | 4.3 | 0.00 | 0.00 | 0.00 | 34 | 1009.0 |
| 20260503215007 | 75 | 345 | 0.0 | 4.3 | 0.00 | 0.00 | 0.00 | 33 | 1009.1 |
| 20260503214523 | 75 | 239 | 0.9 | 3.5 | 0.00 | 0.00 | 0.00 | 32 | 1009.3 |
| 20260503214003 | 77 | 322 | 0.9 | 5.2 | 0.00 | 0.00 | 0.00 | 31 | 1009.3 |
| 20260503213512 | 75 | 360 | 0.9 | 5.2 | 0.00 | 0.00 | 0.00 | 33 | 1009.4 |
| 20260503213010 | 75 | 246 | 1.7 | 7.8 | 0.00 | 0.00 | 0.00 | 34 | 1009.5 |
| 20260503212508 | 76 | 309 | 1.7 | 7.8 | 0.00 | 0.00 | 0.00 | 31 | 1009.6 |
| 20260503212005 | 76 | 309 | 2.6 | 7.8 | 0.00 | 0.00 | 0.00 | 33 | 1009.7 |
| 20260503211513 | 76 | 289 | 0.9 | 5.2 | 0.00 | 0.00 | 0.00 | 36 | 1009.7 |
| 20260503211007 | 76 | 227 | 1.7 | 7.0 | 0.00 | 0.00 | 0.00 | 30 | 1009.8 |
| 20260503210510 | 75 | 319 | 0.9 | 8.7 | 0.00 | 0.00 | 0.00 | 34 | 1009.9 |
| 20260503210035 | 75 | 300 | 4.3 | 9.6 | 0.00 | 0.00 | 0.00 | 33 | 1010.1 |
| 20260503205506 | 75 | 258 | 2.6 | 9.6 | 0.00 | 0.00 | 0.00 | 34 | 1010.1 |
| 20260503205007 | 75 | 252 | 0.9 | 7.0 | 0.00 | 0.00 | 0.00 | 36 | 1010.1 |
| 20260503204512 | 74 | 252 | 2.6 | 7.0 | 0.00 | 0.00 | 0.00 | 33 | 1010.2 |
| 20260503204008 | 74 | 305 | 0.9 | 6.1 | 0.00 | 0.00 | 0.00 | 30 | 1010.3 |
| 20260503203503 | 74 | 21 | 0.9 | 4.3 | 0.00 | 0.00 | 0.00 | 35 | 1010.4 |
| 20260503203020 | 75 | 107 | 0.0 | 4.3 | 0.00 | 0.00 | 0.00 | 34 | 1010.4 |
| 20260503202508 | 75 | 355 | 1.7 | 3.5 | 0.00 | 0.00 | 0.00 | 35 | 1010.5 |
| 20260503202004 | 74 | 232 | 0.9 | 3.5 | 0.00 | 0.00 | 0.00 | 37 | 1010.7 |
| 20260503201522 | 76 | 297 | 0.9 | 3.5 | 0.00 | 0.00 | 0.00 | 33 | 1010.7 |
| 20260503201005 | 75 | 350 | 0.9 | 7.0 | 0.00 | 0.00 | 0.00 | 37 | 1010.7 |
| 20260503200507 | 75 | 315 | 1.7 | 7.0 | 0.00 | 0.00 | 0.00 | 38 | 1010.8 |
| 20260503200018 | 76 | 5 | 3.5 | 7.0 | 0.00 | 0.00 | 0.00 | 35 | 1010.8 |
| 20260503195508 | 74 | 274 | 0.0 | 7.0 | 0.00 | 0.00 | 0.00 | 34 | 1010.7 |
| 20260503195006 | 74 | 88 | 1.7 | 7.0 | 0.00 | 0.00 | 0.00 | 34 | 1010.8 |
| 20260503194522 | 74 | 309 | 1.7 | 5.2 | 0.00 | 0.00 | 0.00 | 37 | 1010.8 |
| 20260503194004 | 73 | 332 | 0.9 | 7.0 | 0.00 | 0.00 | 0.00 | 39 | 1010.8 |
| 20260503193509 | 72 | 314 | 2.6 | 7.8 | 0.00 | 0.00 | 0.00 | 36 | 1010.8 |
| 20260503193022 | 72 | 311 | 0.9 | 7.8 | 0.00 | 0.00 | 0.00 | 34 | 1010.8 |
| 20260503192506 | 73 | 330 | 2.6 | 7.0 | 0.00 | 0.00 | 0.00 | 37 | 1010.9 |
| 20260503192008 | 73 | 350 | 1.7 | 7.8 | 0.00 | 0.00 | 0.00 | 35 | 1011.0 |
| 20260503191519 | 73 | 285 | 1.7 | 9.6 | 0.00 | 0.00 | 0.00 | 33 | 1011.0 |
| 20260503191009 | 73 | 323 | 6.1 | 9.6 | 0.00 | 0.00 | 0.00 | 34 | 1011.1 |
| 20260503190507 | 73 | 355 | 1.7 | 10.4 | 0.00 | 0.00 | 0.00 | 36 | 1011.1 |
| 20260503190017 | 73 | 331 | 5.2 | 10.4 | 0.00 | 0.00 | 0.00 | 36 | 1011.2 |
| 20260503185507 | 74 | 360 | 2.6 | 7.8 | 0.00 | 0.00 | 0.00 | 36 | 1011.1 |
| 20260503185009 | 74 | 346 | 2.6 | 7.8 | 0.00 | 0.00 | 0.00 | 37 | 1011.1 |
| 20260503184524 | 74 | 320 | 1.7 | 5.2 | 0.00 | 0.00 | 0.00 | 37 | 1011.1 |
| 20260503184011 | 73 | 344 | 1.7 | 7.8 | 0.00 | 0.00 | 0.00 | 34 | 1011.2 |
| 20260503183508 | 73 | 337 | 0.9 | 8.7 | 0.00 | 0.00 | 0.00 | 38 | 1011.3 |
| 20260503183023 | 73 | 314 | 3.5 | 8.7 | 0.00 | 0.00 | 0.00 | 38 | 1011.4 |
| 20260503182507 | 73 | 346 | 0.0 | 7.8 | 0.00 | 0.00 | 0.00 | 36 | 1011.4 |
| 20260503182007 | 73 | 294 | 2.6 | 7.0 | 0.00 | 0.00 | 0.00 | 38 | 1011.5 |
| 20260503181515 | 72 | 304 | 0.9 | 7.8 | 0.00 | 0.00 | 0.00 | 41 | 1011.4 |
| 20260503181008 | 72 | 30 | 1.7 | 7.8 | 0.00 | 0.00 | 0.00 | 34 | 1011.6 |
| 20260503180510 | 73 | 350 | 1.7 | 9.6 | 0.00 | 0.00 | 0.00 | 37 | 1011.7 |
| 20260503180026 | 72 | 336 | 2.6 | 10.4 | 0.00 | 0.00 | 0.00 | 38 | 1011.6 |
| 20260503175506 | 72 | 336 | 3.5 | 10.4 | 0.00 | 0.00 | 0.00 | 40 | 1011.8 |
| 20260503175008 | 72 | 306 | 2.6 | 9.6 | 0.00 | 0.00 | 0.00 | 38 | 1011.7 |
| 20260503174525 | 70 | 334 | 3.5 | 8.7 | 0.00 | 0.00 | 0.00 | 39 | 1011.7 |
| 20260503174010 | 71 | 315 | 3.5 | 8.7 | 0.00 | 0.00 | 0.00 | 39 | 1011.8 |
| 20260503173508 | 71 | 28 | 2.6 | 8.7 | 0.00 | 0.00 | 0.00 | 36 | 1011.8 |
| 20260503173020 | 71 | 320 | 3.5 | 8.7 | 0.00 | 0.00 | 0.00 | 36 | 1011.8 |
| 20260503172507 | 71 | 80 | 1.7 | 7.8 | 0.00 | 0.00 | 0.00 | 38 | 1011.8 |
| 20260503172010 | 72 | 342 | 2.6 | 7.8 | 0.00 | 0.00 | 0.00 | 36 | 1011.9 |
| 20260503171521 | 71 | 5 | 2.6 | 10.4 | 0.00 | 0.00 | 0.00 | 40 | 1011.9 |
| 20260503171008 | 71 | 329 | 4.3 | 10.4 | 0.00 | 0.00 | 0.00 | 39 | 1011.9 |
| 20260503170511 | 71 | 327 | 2.6 | 6.1 | 0.00 | 0.00 | 0.00 | 38 | 1011.9 |
| 20260503151010 | 62 | 329 | 2.6 | 7.8 | 0.00 | 0.00 | 0.00 | 51 | 1011.8 |
| 20260503150510 | 61 | 347 | 1.7 | 7.8 | 0.00 | 0.00 | 0.00 | 51 | 1011.8 |
| 20260503131006 | 55 | 250 | 2.6 | 8.7 | 0.00 | 0.00 | 0.00 | 56 | 1010.9 |
| 20260503130506 | 54 | 296 | 1.7 | 8.7 | 0.00 | 0.00 | 0.00 | 59 | 1010.8 |
| 20260503110506 | 52 | 331 | 0.0 | 3.5 | 0.00 | 0.00 | 0.00 | 54 | 1010.8 |
| 20260503090504 | 56 | 223 | 0.9 | 7.8 | 0.00 | 0.00 | 0.00 | 46 | 1010.4 |
| 20260503081523 | 54 | 147 | 0.0 | 3.5 | 0.00 | 0.00 | 0.00 | 47 | 1010.9 |
| 20260503081003 | 53 | 71 | 0.0 | 3.5 | 0.00 | 0.00 | 0.00 | 49 | 1010.9 |
| 20260503080507 | 53 | 333 | 0.0 | 3.5 | 0.00 | 0.00 | 0.00 | 49 | 1010.9 |
| 20260503072507 | 54 | 144 | 0.9 | 3.5 | 0.00 | 0.00 | 0.00 | 47 | 1011.2 |
| 20260503072006 | 55 | 163 | 0.9 | 5.2 | 0.00 | 0.00 | 0.00 | 45 | 1011.2 |
| 20260503071528 | 55 | 142 | 0.9 | 5.2 | 0.00 | 0.00 | 0.00 | 45 | 1011.2 |
| 20260503071009 | 55 | 152 | 1.7 | 5.2 | 0.00 | 0.00 | 0.00 | 45 | 1011.2 |
| 20260503070505 | 55 | 234 | 0.9 | 4.3 | 0.00 | 0.00 | 0.00 | 45 | 1011.3 |
| 20260503055008 | 56 | 172 | 0.9 | 7.0 | 0.00 | 0.00 | 0.00 | 41 | 1012.2 |
| 20260503054531 | 56 | 76 | 0.9 | 7.0 | 0.00 | 0.00 | 0.00 | 42 | 1012.3 |
| 20260503054006 | 56 | 263 | 0.9 | 6.1 | 0.00 | 0.00 | 0.00 | 41 | 1012.2 |
| 20260503053507 | 56 | 202 | 0.9 | 6.1 | 0.00 | 0.00 | 0.00 | 42 | 1012.3 |
| 20260503053019 | 56 | 223 | 1.7 | 7.0 | 0.00 | 0.00 | 0.00 | 42 | 1012.3 |
| 20260503052513 | 56 | 80 | 0.0 | 7.0 | 0.00 | 0.00 | 0.00 | 42 | 1012.2 |
| 20260503052009 | 57 | 288 | 1.7 | 7.0 | 0.00 | 0.00 | 0.00 | 42 | 1012.2 |
| 20260503051514 | 56 | 141 | 0.0 | 7.0 | 0.00 | 0.00 | 0.00 | 42 | 1012.2 |
| 20260503051005 | 56 | 202 | 1.7 | 7.0 | 0.00 | 0.00 | 0.00 | 43 | 1012.3 |
| 20260503050505 | 56 | 59 | 0.9 | 7.0 | 0.00 | 0.00 | 0.00 | 43 | 1012.4 |
| 20260503050022 | 56 | 296 | 1.7 | 4.3 | 0.00 | 0.00 | 0.00 | 44 | 1012.4 |
| 20260503045509 | 55 | 259 | 0.0 | 2.6 | 0.00 | 0.00 | 0.00 | 44 | 1012.4 |
| 20260503045013 | 56 | 98 | 0.9 | 2.6 | 0.00 | 0.00 | 0.00 | 44 | 1012.5 |
| 20260503044536 | 55 | 165 | 0.0 | 2.6 | 0.00 | 0.00 | 0.00 | 44 | 1012.6 |
| 20260503044012 | 55 | 150 | 0.0 | 2.6 | 0.00 | 0.00 | 0.00 | 44 | 1012.6 |
| 20260503043505 | 56 | 85 | 0.0 | 3.5 | 0.00 | 0.00 | 0.00 | 43 | 1012.6 |
| 20260503043023 | 56 | 92 | 0.0 | 3.5 | 0.00 | 0.00 | 0.00 | 43 | 1012.7 |
| 20260503042506 | 56 | 188 | 0.0 | 3.5 | 0.00 | 0.00 | 0.00 | 42 | 1012.8 |
| 20260503042009 | 56 | 132 | 0.0 | 3.5 | 0.00 | 0.00 | 0.00 | 42 | 1012.9 |
| 20260503041517 | 57 | 111 | 0.0 | 4.3 | 0.00 | 0.00 | 0.00 | 42 | 1012.9 |
| 20260503041010 | 57 | 186 | 0.0 | 4.3 | 0.00 | 0.00 | 0.00 | 41 | 1012.9 |
| 20260503040509 | 57 | 303 | 0.9 | 4.3 | 0.00 | 0.00 | 0.00 | 41 | 1013.1 |
| 20260503040018 | 57 | 155 | 0.0 | 3.5 | 0.00 | 0.00 | 0.00 | 41 | 1013.2 |
| 20260503035505 | 57 | 159 | 0.9 | 3.5 | 0.00 | 0.00 | 0.00 | 41 | 1013.2 |
| 20260503035007 | 57 | 296 | 0.0 | 3.5 | 0.00 | 0.00 | 0.00 | 40 | 1013.2 |
| 20260503034522 | 58 | 280 | 0.0 | 6.1 | 0.00 | 0.00 | 0.00 | 40 | 1013.3 |
| 20260503034005 | 58 | 158 | 0.9 | 7.0 | 0.00 | 0.00 | 0.00 | 40 | 1013.3 |
| 20260503033508 | 58 | 278 | 0.9 | 7.0 | 0.00 | 0.00 | 0.00 | 39 | 1013.3 |
| 20260503033023 | 58 | 178 | 0.9 | 7.0 | 0.00 | 0.00 | 0.00 | 38 | 1013.4 |
| 20260503032509 | 58 | 149 | 0.9 | 6.1 | 0.00 | 0.00 | 0.00 | 38 | 1013.6 |
| 20260503032009 | 58 | 132 | 0.0 | 6.1 | 0.00 | 0.00 | 0.00 | 39 | 1013.7 |
| 20260503031525 | 58 | 171 | 0.0 | 7.8 | 0.00 | 0.00 | 0.00 | 39 | 1013.7 |
| 20260503031009 | 58 | 198 | 0.9 | 7.8 | 0.00 | 0.00 | 0.00 | 38 | 1013.8 |
| 20260503030511 | 59 | 179 | 0.9 | 5.2 | 0.00 | 0.00 | 0.00 | 37 | 1013.8 |
| 20260503030028 | 59 | 166 | 0.9 | 5.2 | 0.00 | 0.00 | 0.00 | 37 | 1013.9 |
| 20260503025509 | 59 | 237 | 0.9 | 4.3 | 0.00 | 0.00 | 0.00 | 37 | 1013.9 |
| 20260503025008 | 59 | 208 | 1.7 | 4.3 | 0.00 | 0.00 | 0.00 | 38 | 1013.9 |
| 20260503024522 | 58 | 85 | 0.0 | 3.5 | 0.00 | 0.00 | 0.00 | 37 | 1014.0 |
| 20260503024012 | 59 | 67 | 0.9 | 3.5 | 0.00 | 0.00 | 0.00 | 39 | 1014.0 |
| 20260503023506 | 59 | 150 | 0.0 | 3.5 | 0.00 | 0.00 | 0.00 | 39 | 1014.1 |
| 20260503023024 | 58 | 207 | 0.0 | 3.5 | 0.00 | 0.00 | 0.00 | 40 | 1014.1 |
| 20260503022506 | 58 | 201 | 0.9 | 3.5 | 0.00 | 0.00 | 0.00 | 40 | 1014.0 |
| 20260503022015 | 57 | 198 | 0.0 | 2.6 | 0.00 | 0.00 | 0.00 | 43 | 1014.1 |
| 20260503021526 | 58 | 152 | 0.0 | 2.6 | 0.00 | 0.00 | 0.00 | 40 | 1014.2 |
| 20260503021006 | 58 | 157 | 0.0 | 2.6 | 0.00 | 0.00 | 0.00 | 41 | 1014.2 |
| 20260503020509 | 58 | 158 | 0.0 | 2.6 | 0.00 | 0.00 | 0.00 | 41 | 1014.3 |
| 20260503020020 | 58 | 113 | 0.0 | 0.0 | 0.00 | 0.00 | 0.00 | 40 | 1014.3 |
| 20260503015510 | 58 | 113 | 0.0 | 0.0 | 0.00 | 0.00 | 0.00 | 40 | 1014.4 |
| 20260503015008 | 58 | 113 | 0.0 | 0.0 | 0.00 | 0.00 | 0.00 | 40 | 1014.5 |
| 20260503014526 | 59 | 113 | 0.0 | 0.0 | 0.00 | 0.00 | 0.00 | 40 | 1014.5 |
| 20260503014008 | 59 | 113 | 0.0 | 0.0 | 0.00 | 0.00 | 0.00 | 38 | 1014.5 |
| 20260503013513 | 60 | 113 | 0.0 | 0.0 | 0.00 | 0.00 | 0.00 | 36 | 1014.5 |
| 20260503013030 | 60 | 113 | 0.0 | 0.0 | 0.00 | 0.00 | 0.00 | 36 | 1014.5 |
| 20260503012510 | 61 | 113 | 0.0 | 0.0 | 0.00 | 0.00 | 0.00 | 36 | 1014.6 |
| 20260503012014 | 61 | 113 | 0.0 | 1.7 | 0.00 | 0.00 | 0.00 | 36 | 1014.6 |
| 20260503011529 | 62 | 113 | 0.0 | 1.7 | 0.00 | 0.00 | 0.00 | 35 | 1014.5 |
| 20260503011011 | 62 | 168 | 0.0 | 1.7 | 0.00 | 0.00 | 0.00 | 32 | 1014.6 |
| 20260503010510 | 63 | 169 | 0.0 | 1.7 | 0.00 | 0.00 | 0.00 | 31 | 1014.6 |
| 20260503010024 | 63 | 166 | 0.0 | 0.9 | 0.00 | 0.00 | 0.00 | 32 | 1014.6 |
| 20260503005509 | 64 | 167 | 0.0 | 1.7 | 0.00 | 0.00 | 0.00 | 31 | 1014.6 |
| 20260503005008 | 64 | 247 | 0.0 | 5.2 | 0.00 | 0.00 | 0.00 | 31 | 1014.6 |
| 20260503004526 | 64 | 126 | 0.9 | 5.2 | 0.00 | 0.00 | 0.00 | 30 | 1014.6 |
| 20260503004009 | 65 | 179 | 0.9 | 4.3 | 0.00 | 0.00 | 0.00 | 30 | 1014.6 |
| 20260503003507 | 65 | 17 | 0.0 | 1.7 | 0.00 | 0.00 | 0.00 | 30 | 1014.6 |
| 20260503003025 | 65 | 257 | 0.0 | 5.2 | 0.00 | 0.00 | 0.00 | 29 | 1014.7 |
| 20260503002510 | 65 | 252 | 0.9 | 5.2 | 0.00 | 0.00 | 0.00 | 28 | 1014.7 |
| 20260503002007 | 65 | 267 | 0.0 | 3.5 | 0.00 | 0.00 | 0.00 | 29 | 1014.7 |
| 20260503001522 | 65 | 107 | 0.0 | 4.3 | 0.00 | 0.00 | 0.00 | 29 | 1014.8 |
| 20260503001009 | 66 | 154 | 0.9 | 5.2 | 0.00 | 0.00 | 0.00 | 29 | 1014.7 |
| 20260503000505 | 66 | 177 | 0.9 | 5.2 | 0.00 | 0.00 | 0.00 | 27 | 1014.9 |
| 20260503000024 | 66 | 338 | 0.0 | 6.1 | 0.00 | 0.00 | 0.00 | 30 | 1015.0 |
| 20260502235512 | 66 | 233 | 1.7 | 6.1 | 0.00 | 0.00 | 0.00 | 26 | 1015.2 |
| 20260502235009 | 66 | 314 | 1.7 | 5.2 | 0.00 | 0.00 | 0.00 | 32 | 1015.3 |
| 20260502234503 | 67 | 229 | 0.9 | 5.2 | 0.00 | 0.00 | 0.00 | 26 | 1015.3 |
| 20260502234009 | 67 | 105 | 0.0 | 5.2 | 0.00 | 0.00 | 0.00 | 28 | 1015.3 |
| 20260502233506 | 67 | 250 | 0.0 | 7.8 | 0.00 | 0.00 | 0.00 | 27 | 1015.3 |
| 20260502233003 | 67 | 329 | 0.0 | 7.8 | 0.00 | 0.00 | 0.00 | 30 | 1015.4 |
| 20260502232503 | 67 | 305 | 0.9 | 6.1 | 0.00 | 0.00 | 0.00 | 27 | 1015.5 |
| 20260502232003 | 67 | 306 | 0.9 | 5.2 | 0.00 | 0.00 | 0.00 | 27 | 1015.5 |
| 20260502231512 | 68 | 326 | 2.6 | 6.1 | 0.00 | 0.00 | 0.00 | 27 | 1015.6 |
| 20260502231003 | 67 | 182 | 0.0 | 6.1 | 0.00 | 0.00 | 0.00 | 29 | 1015.6 |
| 20260502230503 | 68 | 215 | 2.6 | 6.1 | 0.00 | 0.00 | 0.00 | 29 | 1015.7 |
| 20260502230004 | 68 | 317 | 1.7 | 5.2 | 0.00 | 0.00 | 0.00 | 27 | 1015.7 |
| 20260502225504 | 68 | 336 | 1.7 | 5.2 | 0.00 | 0.00 | 0.00 | 27 | 1015.7 |
| 20260502225005 | 67 | 306 | 1.7 | 4.3 | 0.00 | 0.00 | 0.00 | 28 | 1015.8 |
| 20260502224506 | 68 | 286 | 0.9 | 7.8 | 0.00 | 0.00 | 0.00 | 28 | 1015.9 |
| 20260502224001 | 68 | 288 | 1.7 | 7.8 | 0.00 | 0.00 | 0.00 | 30 | 1015.9 |
| 20260502223506 | 68 | 248 | 2.6 | 6.1 | 0.00 | 0.00 | 0.00 | 29 | 1016.0 |
| 20260502223006 | 68 | 242 | 1.7 | 5.2 | 0.00 | 0.00 | 0.00 | 28 | 1016.1 |